[[{"header":{"parameterUnit":"m.s-1","parameterCategory":1,"la1":30.2991,"la2":30.254,"lo1":-89.0895,"lo2":-89.0444,"dy":0.0017,"dx":0.0017,"nx":28,"ny":28,"refTime":"2025-11-09T03:00:00:Z","depth":0,"parameterNumber":2,"parameterNumberName":"U-component_of_WINDS"},"data":[0,0,0,0,0,0,0,0,0,0,0,0,0,0,0,0,0,0,0,0,0,0,0,0,0,0,0,0,0,0,0,0,0,0,0,0,0,0,0,0,0,0,0,0,0,0,0,0,0,0,0,0,0,0,0,0,0,0,3.3223,3.3223,0,3.3242,3.3242,3.3242,3.319,3.3188,3.3187,3.3185,3.3202,3.3204,3.3206,0,0,0,0,0,0,0,0,0,0,0,0,0,3.3141,3.3143,3.3223,3.3223,3.3224,3.3242,3.3242,3.3242,3.319,3.3188,3.3186,3.3184,3.3202,3.3204,3.3206,0,0,0,0,0,0,0,0,0,0,0,0,0,3.317,3.3143,3.3223,3.32,3.3198,3.3242,3.3242,3.3243,3.3191,3.3188,3.3186,3.3184,3.3201,3.3204,3.3207,3.3273,0,0,3.3216,3.3217,0,0,0,0,0,0,0,0,3.3168,3.3173,3.3203,3.3201,3.3199,3.3211,3.3219,3.3253,3.3191,3.3193,3.3185,3.3182,3.3207,3.3209,3.3218,3.3274,3.3275,3.3216,3.3218,3.3219,3.322,0,0,0,0,0,0,0,3.3166,3.3172,3.323,3.3203,3.3201,3.3188,3.319,3.3226,3.3213,3.3193,3.3189,3.3192,3.3206,3.3215,3.3218,3.3275,3.3216,3.3218,3.322,3.3221,3.3388,3.3391,0,0,0,0,0,0,3.3168,3.3171,3.323,3.3231,3.3178,3.3192,3.3193,3.321,3.3213,3.3211,3.3194,3.319,3.3212,3.3215,3.3219,3.3297,3.3219,3.3222,3.3223,3.3385,3.3389,3.3392,0,0,0,0,0,0,3.3166,3.3173,3.3229,3.32,3.3206,3.3196,3.3215,3.3211,3.3221,3.3214,3.3211,3.3207,3.321,3.3214,3.3261,3.3297,3.3223,3.3226,3.3382,3.3386,3.339,3.3455,0,0,0,0,0,0,3.3164,3.3173,3.3198,3.3201,3.3208,3.3271,3.3217,3.3214,3.3227,3.3221,3.3225,3.3223,3.3208,3.3256,3.3264,3.33,3.3228,3.3379,3.3384,3.3389,3.3449,3.346,3.347,0,0,0,0,0,3.3161,3.3215,3.32,3.3207,3.3239,3.3273,3.3277,3.3259,3.323,3.3255,3.3251,3.3223,3.3292,3.3262,3.3269,3.3307,3.3376,3.3383,3.3388,3.3444,3.3458,3.347,0,0,0,0,0,0,3.3215,3.3215,3.3198,3.3254,3.3265,3.3264,3.3295,3.3274,3.3292,3.3286,3.3263,3.3264,3.3315,3.3315,3.3281,3.3372,3.3329,3.3337,3.3369,3.3382,3.3392,3.339,3.323,0,0,0,0,0,3.3234,3.3263,3.326,3.331,3.3317,3.3306,3.332,3.3306,3.3315,3.3318,3.3317,3.3327,3.3351,3.3367,3.3388,3.345,3.345,3.348,3.349,3.3499,3.3505,3.3538,3.3551,3.3411,3.3411,3.3411,0,0,3.3273,3.3276,3.3295,3.3321,3.3327,3.3357,3.3309,3.3342,3.3364,3.3323,3.3366,3.3367,3.3376,3.343,3.3454,3.3432,3.3544,3.3506,3.3513,3.3515,3.3546,3.3559,3.3571,3.3415,3.3414,3.3414,0,0,3.3358,3.3364,3.3406,3.3414,3.3425,3.3417,3.3428,3.3432,3.343,3.3474,3.3445,3.347,3.3512,3.352,3.3529,3.3621,3.3596,3.3629,3.3682,3.3715,3.3726,3.3735,3.3767,3.3779,3.3635,3.3636,3.3636,0,3.3404,3.3448,3.343,3.3466,3.3479,3.3445,3.3488,3.3496,3.3513,3.3523,3.3499,3.3551,3.3555,3.3611,3.3634,3.3643,3.3654,3.3627,3.3726,3.3735,3.3744,3.3774,3.3786,3.3639,3.3639,3.3639,3.3638,0,3.3504,3.3535,3.3568,3.3587,3.3604,3.3643,3.3631,3.365,3.3636,3.3631,3.3677,3.3681,3.3703,3.3715,3.3701,3.377,3.3756,3.373,3.3686,3.3761,3.3789,3.3801,3.3645,3.3644,3.3642,3.3641,0,0,3.3621,3.3632,3.3644,3.3653,3.3663,3.3687,3.3725,3.3748,3.3765,3.3778,3.3809,3.3847,3.3823,3.3834,3.382,3.3849,3.3921,3.3819,3.3819,3.3837,3.3998,3.4017,3.4031,3.3906,3.3908,3.391,3.3997,0,3.3704,3.3771,3.3757,3.3822,3.385,3.3821,3.3854,3.3864,3.3862,3.3886,3.3883,3.3909,3.3876,3.3882,3.391,3.3907,3.3953,3.3901,3.3934,3.3935,3.3931,3.4045,3.4065,3.4147,3.4008,3.401,3.4011,0,3.381,3.3829,3.3897,3.3905,3.3916,3.3947,3.3967,3.3991,3.4002,3.3998,3.4012,3.3994,3.4032,3.399,3.4042,3.4006,3.4019,3.4021,3.4023,3.4024,3.3976,3.4049,3.4173,3.4184,3.4028,3.4027,3.4026,0,3.3888,3.3931,3.3977,3.3986,3.3996,3.4018,3.4023,3.4032,3.4047,3.4066,3.4075,3.4098,3.411,3.4127,3.4115,3.4086,3.417,3.4126,3.4167,3.4167,3.4184,3.4183,3.4311,3.4195,3.4195,3.4195,3.4195,0,3.3981,3.4024,3.4012,3.4041,3.4088,3.4073,3.412,3.4121,3.413,3.4158,3.4134,3.4161,3.4144,3.417,3.4161,3.4205,3.4211,3.4209,3.4206,3.421,3.421,3.4217,3.4211,3.4198,3.4197,3.4197,3.4196,0,3.4075,3.4069,3.4118,3.4125,3.4127,3.4162,3.4167,3.4194,3.4191,3.4227,3.4234,3.4229,3.4258,3.4249,3.428,3.4274,3.433,3.432,3.4326,3.4323,3.4364,3.436,3.45,3.4517,3.4392,3.4393,3.4394,0,3.4134,3.4167,3.4178,3.4196,3.4203,3.4232,3.4248,3.4235,3.4253,3.4269,3.4294,3.4321,3.4342,3.439,3.4389,3.4412,3.4402,3.445,3.4405,3.4409,3.4402,3.4399,3.4402,3.4458,3.4459,3.446,3.4461,0,3.424,3.4237,3.4261,3.4285,3.4306,3.4324,3.434,3.4356,3.4344,3.4365,3.4395,3.4412,3.4444,3.4472,3.4494,3.4498,3.4478,3.4476,3.4486,3.449,3.4492,3.4491,3.4349,3.4472,3.4471,3.447,3.447,3.4469,3.4318,3.4346,3.4358,3.4387,3.4398,3.4414,3.444,3.4441,3.4466,3.4492,3.4484,3.4518,3.453,3.4558,3.4566,3.4593,3.4574,3.459,3.4593,3.4597,3.4602,3.449,3.4597,3.4596,3.4596,3.4596,3.4596,0,3.4422,3.4429,3.4456,3.448,3.4503,3.4484,3.4501,3.4521,3.4552,3.4566,3.4588,3.4623,3.465,3.4652,3.4677,3.4698,3.4689,3.4705,3.4702,3.4704,3.4617,3.4605,3.4712,3.4712,3.4712,3.4712,3.4712,3.4712,3.4478,3.4524,3.4523,3.4574,3.4581,3.4616,3.4627,3.4642,3.4653,3.4694,3.4717,3.4719,3.4728,3.4754,3.4778,3.4778,3.4788,3.4807,3.4803,3.4721,3.471,3.4699,3.4687,3.4809,3.4809,3.4887,3.4888,3.4888]},{"header":{"parameterUnit":"m.s-1","parameterCategory":1,"la1":30.2991,"la2":30.254,"lo1":-89.0895,"lo2":-89.0444,"dy":0.0017,"dx":0.0017,"nx":28,"ny":28,"refTime":"2025-11-09T03:00:00:Z","depth":0,"parameterNumber":3,"parameterNumberName":"V-component_of_WINDS"},"data":[0,0,0,0,0,0,0,0,0,0,0,0,0,0,0,0,0,0,0,0,0,0,0,0,0,0,0,0,0,0,0,0,0,0,0,0,0,0,0,0,0,0,0,0,0,0,0,0,0,0,0,0,0,0,0,0,0,0,-8.1431,-8.1433,0,-8.1643,-8.1646,-8.1648,-8.1554,-8.1549,-8.1544,-8.1539,-8.1753,-8.1763,-8.1774,0,0,0,0,0,0,0,0,0,0,0,0,0,-8.094,-8.095,-8.143,-8.1433,-8.1436,-8.1643,-8.1646,-8.1649,-8.1555,-8.1549,-8.1542,-8.1536,-8.175,-8.1762,-8.1775,0,0,0,0,0,0,0,0,0,0,0,0,0,-8.1153,-8.0953,-8.143,-8.1414,-8.1415,-8.1642,-8.1646,-8.1649,-8.1556,-8.1548,-8.1541,-8.1533,-8.1746,-8.1761,-8.1777,-8.2031,0,0,-8.1825,-8.1832,0,0,0,0,0,0,0,0,-8.1141,-8.1171,-8.1414,-8.1416,-8.1417,-8.1564,-8.1551,-8.1777,-8.1558,-8.1503,-8.1538,-8.1529,-8.1696,-8.1716,-8.1773,-8.2041,-8.205,-8.1826,-8.1836,-8.1843,-8.1847,0,0,0,0,0,0,0,-8.1127,-8.1161,-8.1514,-8.1417,-8.1419,-8.1395,-8.1417,-8.1594,-8.1641,-8.1507,-8.15,-8.1527,-8.1696,-8.1758,-8.1777,-8.2053,-8.1826,-8.184,-8.185,-8.1856,-8.2541,-8.2549,0,0,0,0,0,0,-8.1112,-8.115,-8.1508,-8.1521,-8.1257,-8.1411,-8.1435,-8.1525,-8.1638,-8.1648,-8.1533,-8.1522,-8.1734,-8.1759,-8.1784,-8.209,-8.1843,-8.1858,-8.1867,-8.2532,-8.2543,-8.2552,0,0,0,0,0,0,-8.1102,-8.1145,-8.1499,-8.1334,-8.1377,-8.1427,-8.1529,-8.1533,-8.1595,-8.1659,-8.1666,-8.1589,-8.1729,-8.1762,-8.1971,-8.2096,-8.1865,-8.1879,-8.2522,-8.2536,-8.2548,-8.2703,0,0,0,0,0,0,-8.1089,-8.1142,-8.124,-8.1337,-8.1386,-8.1683,-8.1537,-8.1543,-8.1623,-8.161,-8.1712,-8.1722,-8.1726,-8.1947,-8.1986,-8.2113,-8.1892,-8.2511,-8.2528,-8.2543,-8.2687,-8.272,-8.2748,0,0,0,0,0,-8.1071,-8.1275,-8.1246,-8.1289,-8.151,-8.1691,-8.1719,-8.172,-8.1633,-8.1732,-8.1773,-8.1718,-8.2076,-8.197,-8.2013,-8.2146,-8.2503,-8.2523,-8.2542,-8.2673,-8.2713,-8.2747,0,0,0,0,0,0,-8.119,-8.1287,-8.1256,-8.1497,-8.1587,-8.1675,-8.1799,-8.1762,-8.1878,-8.1861,-8.1856,-8.188,-8.2096,-8.2142,-8.2022,-8.2398,-8.2276,-8.2305,-8.2361,-8.2399,-8.2429,-8.2414,-8.1905,0,0,0,0,0,-8.1245,-8.1385,-8.1461,-8.1666,-8.1713,-8.1749,-8.1827,-8.1821,-8.1913,-8.195,-8.2006,-8.2097,-8.2229,-8.2317,-8.2442,-8.2693,-8.2713,-8.2806,-8.2836,-8.2861,-8.2886,-8.3022,-8.3064,-8.2616,-8.2616,-8.2616,0,0,-8.1358,-8.1428,-8.1517,-8.1692,-8.176,-8.1905,-8.1781,-8.1938,-8.2045,-8.1973,-8.2174,-8.2219,-8.232,-8.2551,-8.2655,-8.2595,-8.3014,-8.2886,-8.2905,-8.2917,-8.3046,-8.3089,-8.3126,-8.263,-8.2627,-8.2625,0,0,-8.1639,-8.1706,-8.1885,-8.1956,-8.2062,-8.2085,-8.2128,-8.2222,-8.2249,-8.2451,-8.24,-8.2526,-8.2755,-8.2829,-8.2896,-8.3206,-8.316,-8.3246,-8.3406,-8.3538,-8.3573,-8.3604,-8.3715,-8.3754,-8.3271,-8.3272,-8.3272,0,-8.1766,-8.1983,-8.198,-8.2143,-8.2221,-8.2164,-8.2344,-8.2413,-8.2555,-8.261,-8.2541,-8.2827,-8.2891,-8.3138,-8.3214,-8.327,-8.3319,-8.3235,-8.3568,-8.36,-8.3629,-8.3734,-8.3775,-8.3282,-8.328,-8.3279,-8.3278,0,-8.2134,-8.2285,-8.2416,-8.2555,-8.2648,-8.2818,-8.2841,-8.2935,-8.2921,-8.295,-8.3156,-8.3231,-8.337,-8.3428,-8.3415,-8.3674,-8.3634,-8.3568,-8.3444,-8.3681,-8.378,-8.382,-8.3296,-8.3292,-8.3289,-8.3287,0,0,-8.2496,-8.2632,-8.268,-8.2743,-8.2856,-8.2971,-8.3139,-8.3277,-8.3357,-8.3457,-8.3596,-8.3792,-8.3731,-8.3808,-8.3802,-8.3918,-8.4158,-8.3837,-8.3839,-8.3894,-8.4449,-8.4498,-8.4545,-8.4129,-8.4136,-8.4142,-8.444,0,-8.2785,-8.3079,-8.3083,-8.3353,-8.3492,-8.344,-8.3585,-8.367,-8.3702,-8.3824,-8.3858,-8.3997,-8.3906,-8.3952,-8.4065,-8.4105,-8.427,-8.4084,-8.4258,-8.4264,-8.4235,-8.4597,-8.465,-8.4927,-8.4479,-8.4485,-8.449,0,-8.3161,-8.3274,-8.3559,-8.3652,-8.371,-8.3842,-8.3968,-8.4085,-8.418,-8.4195,-8.4281,-8.4258,-8.4427,-8.4299,-8.4533,-8.4406,-8.4478,-8.4509,-8.4519,-8.4536,-8.4392,-8.4623,-8.5015,-8.5057,-8.4551,-8.4546,-8.4541,0,-8.3397,-8.362,-8.3819,-8.3874,-8.3987,-8.4081,-8.4132,-8.4219,-8.4302,-8.4412,-8.4465,-8.4594,-8.4664,-8.4763,-8.4775,-8.4681,-8.501,-8.4882,-8.5026,-8.5027,-8.5098,-8.5094,-8.5508,-8.5144,-8.5144,-8.5143,-8.5142,0,-8.3719,-8.3896,-8.3926,-8.4049,-8.4245,-8.4246,-8.444,-8.4483,-8.4561,-8.469,-8.4652,-8.4774,-8.4782,-8.4908,-8.4918,-8.5109,-8.5141,-8.5158,-8.5158,-8.5162,-8.516,-8.5208,-8.5189,-8.5154,-8.5151,-8.5149,-8.5147,0,-8.4016,-8.4043,-8.4257,-8.4347,-8.4374,-8.4514,-8.4591,-8.4708,-8.4735,-8.49,-8.4938,-8.4983,-8.5128,-8.515,-8.532,-8.5326,-8.5557,-8.5537,-8.5525,-8.5523,-8.5665,-8.5652,-8.6126,-8.6188,-8.5784,-8.5787,-8.5791,0,-8.422,-8.4355,-8.4459,-8.4544,-8.4601,-8.4737,-8.4822,-8.4828,-8.4917,-8.5035,-8.5138,-8.5279,-8.5393,-8.5628,-8.5674,-8.5804,-8.5788,-8.5945,-8.5807,-8.5806,-8.579,-8.5782,-8.5796,-8.5971,-8.5976,-8.5979,-8.5982,0,-8.458,-8.4587,-8.471,-8.484,-8.4942,-8.5044,-8.514,-8.5211,-8.5229,-8.5331,-8.548,-8.5569,-8.5743,-8.5884,-8.6013,-8.6064,-8.6027,-8.6025,-8.6066,-8.607,-8.6058,-8.6067,-8.5598,-8.6014,-8.6011,-8.6009,-8.6007,-8.6006,-8.4836,-8.4953,-8.5046,-8.5185,-8.5258,-8.5349,-8.5463,-8.5506,-8.563,-8.5774,-8.5769,-8.5933,-8.6023,-8.6193,-8.6253,-8.6381,-8.6329,-8.6387,-8.6402,-8.6417,-8.6431,-8.6038,-8.6404,-8.6403,-8.6402,-8.6401,-8.6401,0,-8.5194,-8.5251,-8.5379,-8.5515,-8.5625,-8.5581,-8.5684,-8.5779,-8.5924,-8.6012,-8.6125,-8.6296,-8.6433,-8.649,-8.6624,-8.6715,-8.6701,-8.675,-8.6744,-8.6756,-8.6469,-8.6421,-8.6759,-8.6759,-8.6759,-8.6759,-8.6759,-8.6759,-8.5393,-8.5589,-8.5608,-8.5839,-8.5894,-8.6056,-8.6119,-8.6202,-8.6272,-8.6465,-8.6579,-8.6616,-8.6692,-8.6831,-8.6955,-8.6968,-8.7019,-8.7076,-8.7082,-8.6812,-8.6776,-8.6742,-8.6696,-8.7087,-8.7087,-8.7358,-8.7361,-8.7362]}]]